Time,TemperatureF,DewpointF,PressureIn,WindDirection,WindDirectionDegrees,WindSpeedMPH,WindSpeedGustMPH,Humidity,HourlyPrecipIn,Conditions,Clouds,dailyrainin,SoftwareType,DateUTC
2013-03-06 00:00:00,28.3,20.4,30.36,NNW,338,8.3,11.2,72,0.00,,,0.00,WUHU216HW,2013-03-06 06:00:00,
2013-03-06 00:05:00,28.1,20.3,30.36,NW,315,5.4,11.2,72,0.00,,,0.00,WUHU216HW,2013-03-06 06:05:00,
2013-03-06 00:10:00,28.3,20.4,30.36,North,0,7.6,7.6,72,0.00,,,0.00,WUHU216HW,2013-03-06 06:10:00,
2013-03-06 00:15:00,28.3,20.4,30.37,NNW,338,4.0,8.3,72,0.00,,,0.00,WUHU216HW,2013-03-06 06:15:00,
2013-03-06 00:20:00,28.3,20.4,30.37,North,0,7.8,8.3,72,0.00,,,0.00,WUHU216HW,2013-03-06 06:20:00,
2013-03-06 00:25:00,28.3,20.4,30.37,NNW,338,12.1,12.1,72,0.00,,,0.00,WUHU216HW,2013-03-06 06:25:00,
2013-03-06 00:30:00,28.1,20.3,30.37,NW,315,6.3,12.1,72,0.00,,,0.00,WUHU216HW,2013-03-06 06:30:00,
2013-03-06 00:35:00,28.1,20.3,30.37,NW,315,5.4,6.9,72,0.00,,,0.00,WUHU216HW,2013-03-06 06:35:00,
2013-03-06 00:40:00,28.1,20.3,30.37,NNW,338,6.5,8.7,72,0.00,,,0.00,WUHU216HW,2013-03-06 06:40:00,
2013-03-06 00:45:00,28.1,20.3,30.37,NNW,338,2.7,8.7,72,0.00,,,0.00,WUHU216HW,2013-03-06 06:45:00,
2013-03-06 00:50:00,28.1,20.3,30.37,North,0,6.0,7.6,72,0.00,,,0.00,WUHU216HW,2013-03-06 06:50:00,
2013-03-06 00:55:00,28.3,20.1,30.37,North,0,4.9,7.2,71,0.00,,,0.00,WUHU216HW,2013-03-06 06:55:00,
2013-03-06 01:00:00,28.3,20.1,30.37,North,0,2.7,5.6,71,0.00,,,0.00,WUHU216HW,2013-03-06 07:00:00,
2013-03-06 01:05:00,28.3,20.1,30.38,NW,315,3.8,5.8,71,0.00,,,0.00,WUHU216HW,2013-03-06 07:05:00,
2013-03-06 01:10:00,28.3,20.1,30.38,NNE,23,3.6,6.0,71,0.00,,,0.00,WUHU216HW,2013-03-06 07:10:00,
2013-03-06 01:15:00,28.4,20.3,30.38,NNW,338,2.2,6.9,71,0.00,,,0.00,WUHU216HW,2013-03-06 07:15:00,
2013-03-06 01:20:00,28.4,20.3,30.38,North,0,3.1,6.9,71,0.00,,,0.00,WUHU216HW,2013-03-06 07:20:00,
2013-03-06 01:25:00,28.4,20.3,30.39,North,0,5.4,5.6,71,0.00,,,0.00,WUHU216HW,2013-03-06 07:25:00,
2013-03-06 01:30:00,28.3,19.8,30.39,North,0,5.8,11.2,70,0.00,,,0.00,WUHU216HW,2013-03-06 07:30:00,
2013-03-06 01:35:00,28.1,19.3,30.39,North,0,10.7,11.2,69,0.00,,,0.00,WUHU216HW,2013-03-06 07:35:00,
2013-03-06 01:40:00,28.1,18.9,30.39,North,0,3.4,10.7,68,0.00,,,0.00,WUHU216HW,2013-03-06 07:40:00,
2013-03-06 01:45:00,28.1,18.2,30.39,North,0,5.6,8.5,66,0.00,,,0.00,WUHU216HW,2013-03-06 07:45:00,
2013-03-06 01:50:00,27.9,18.0,30.39,NNW,338,1.8,8.5,66,0.00,,,0.00,WUHU216HW,2013-03-06 07:50:00,
2013-03-06 01:55:00,28.1,18.2,30.39,NNE,23,4.7,6.0,66,0.00,,,0.00,WUHU216HW,2013-03-06 07:55:00,
2013-03-06 02:00:00,28.1,18.5,30.39,North,0,3.4,6.0,67,0.00,,,0.00,WUHU216HW,2013-03-06 08:00:00,
2013-03-06 02:05:00,28.3,18.7,30.39,NW,315,3.4,4.0,67,0.00,,,0.00,WUHU216HW,2013-03-06 08:05:00,
2013-03-06 02:10:00,28.3,19.1,30.39,WNW,293,7.8,8.1,68,0.00,,,0.00,WUHU216HW,2013-03-06 08:10:00,
2013-03-06 02:15:00,28.1,19.3,30.39,NNW,338,4.5,8.1,69,0.00,,,0.00,WUHU216HW,2013-03-06 08:15:00,
2013-03-06 02:20:00,28.1,19.6,30.39,NW,315,3.4,7.8,70,0.00,,,0.00,WUHU216HW,2013-03-06 08:20:00,
2013-03-06 02:25:00,27.9,19.4,30.40,North,0,2.9,7.2,70,0.00,,,0.00,WUHU216HW,2013-03-06 08:25:00,
2013-03-06 02:30:00,27.9,19.4,30.39,NNW,338,1.8,7.2,70,0.00,,,0.00,WUHU216HW,2013-03-06 08:30:00,
2013-03-06 02:35:00,27.9,19.4,30.39,NNW,338,2.7,6.5,70,0.00,,,0.00,WUHU216HW,2013-03-06 08:35:00,
2013-03-06 02:40:00,27.9,19.1,30.39,NNW,338,4.9,6.5,69,0.00,,,0.00,WUHU216HW,2013-03-06 08:40:00,
2013-03-06 02:45:00,27.7,18.9,30.39,NNW,338,5.6,6.7,69,0.00,,,0.00,WUHU216HW,2013-03-06 08:45:00,
2013-03-06 02:50:00,27.7,18.9,30.39,NNW,338,9.2,9.2,69,0.00,,,0.00,WUHU216HW,2013-03-06 08:50:00,
2013-03-06 02:55:00,27.5,19.1,30.40,North,0,8.3,9.2,70,0.00,,,0.00,WUHU216HW,2013-03-06 08:55:00,
2013-03-06 03:00:00,27.5,19.1,30.39,NW,315,3.4,8.5,70,0.00,,,0.00,WUHU216HW,2013-03-06 09:00:00,
2013-03-06 03:05:00,27.5,19.1,30.39,NNW,338,6.0,7.6,70,0.00,,,0.00,WUHU216HW,2013-03-06 09:05:00,
2013-03-06 03:10:00,27.5,18.7,30.39,NW,315,6.0,13.2,69,0.00,,,0.00,WUHU216HW,2013-03-06 09:10:00,
2013-03-06 03:15:00,27.4,18.5,30.39,North,0,5.8,13.2,69,0.00,,,0.00,WUHU216HW,2013-03-06 09:15:00,
2013-03-06 03:20:00,27.0,18.2,30.39,NNE,23,4.3,7.6,69,0.00,,,0.00,WUHU216HW,2013-03-06 09:20:00,
2013-03-06 03:25:00,27.0,18.2,30.40,North,0,3.6,7.6,69,0.00,,,0.00,WUHU216HW,2013-03-06 09:25:00,
2013-03-06 03:30:00,26.6,18.2,30.40,NW,315,6.0,6.3,70,0.00,,,0.00,WUHU216HW,2013-03-06 09:30:00,
2013-03-06 03:35:00,26.5,18.0,30.40,NNW,338,5.4,6.3,70,0.00,,,0.00,WUHU216HW,2013-03-06 09:35:00,
2013-03-06 03:40:00,26.3,17.8,30.40,NNW,338,3.6,5.4,70,0.00,,,0.00,WUHU216HW,2013-03-06 09:40:00,
2013-03-06 03:45:00,26.1,17.9,30.40,NNW,338,6.5,6.5,71,0.00,,,0.00,WUHU216HW,2013-03-06 09:45:00,
2013-03-06 03:50:00,25.9,18.1,30.40,North,0,4.7,6.5,72,0.00,,,0.00,WUHU216HW,2013-03-06 09:50:00,
2013-03-06 03:55:00,25.9,18.1,30.41,NW,315,5.1,6.3,72,0.00,,,0.00,WUHU216HW,2013-03-06 09:55:00,
2013-03-06 04:00:00,25.7,17.9,30.41,NNW,338,5.6,6.3,72,0.00,,,0.00,WUHU216HW,2013-03-06 10:00:00,
2013-03-06 04:05:00,25.7,17.9,30.41,NNW,338,4.9,6.3,72,0.00,,,0.00,WUHU216HW,2013-03-06 10:05:00,
2013-03-06 04:10:00,25.6,17.7,30.41,NNW,338,4.3,4.9,72,0.00,,,0.00,WUHU216HW,2013-03-06 10:10:00,
2013-03-06 04:15:00,25.6,17.7,30.41,NNW,338,3.1,6.3,72,0.00,,,0.00,WUHU216HW,2013-03-06 10:15:00,
2013-03-06 04:20:00,25.4,17.6,30.41,North,0,1.8,6.3,72,0.00,,,0.00,WUHU216HW,2013-03-06 10:20:00,
2013-03-06 04:25:00,25.0,17.2,30.42,WNW,293,1.8,5.6,72,0.00,,,0.00,WUHU216HW,2013-03-06 10:25:00,
2013-03-06 04:30:00,24.8,16.8,30.42,NNW,338,3.4,5.6,71,0.00,,,0.00,WUHU216HW,2013-03-06 10:30:00,
2013-03-06 04:35:00,24.7,16.8,30.42,NNW,338,4.5,5.4,72,0.00,,,0.00,WUHU216HW,2013-03-06 10:35:00,
2013-03-06 04:40:00,24.7,16.8,30.42,NNW,338,3.4,5.4,72,0.00,,,0.00,WUHU216HW,2013-03-06 10:40:00,
2013-03-06 04:45:00,24.5,16.8,30.42,North,0,4.0,4.9,72,0.00,,,0.00,WUHU216HW,2013-03-06 10:45:00,
2013-03-06 04:50:00,24.5,16.8,30.42,North,0,3.4,4.3,72,0.00,,,0.00,WUHU216HW,2013-03-06 10:50:00,
2013-03-06 04:55:00,24.3,16.6,30.42,North,0,4.0,4.7,72,0.00,,,0.00,WUHU216HW,2013-03-06 10:55:00,
2013-03-06 05:00:00,24.1,16.7,30.42,NW,315,6.0,6.0,73,0.00,,,0.00,WUHU216HW,2013-03-06 11:00:00,
2013-03-06 05:05:00,24.1,16.7,30.43,WNW,293,4.0,6.0,73,0.00,,,0.00,WUHU216HW,2013-03-06 11:05:00,
2013-03-06 05:10:00,24.1,16.7,30.43,North,0,3.6,5.6,73,0.00,,,0.00,WUHU216HW,2013-03-06 11:10:00,
2013-03-06 05:15:00,24.1,16.7,30.43,WNW,293,3.4,4.7,73,0.00,,,0.00,WUHU216HW,2013-03-06 11:15:00,
2013-03-06 05:20:00,23.9,16.5,30.43,NNW,338,2.7,4.7,73,0.00,,,0.00,WUHU216HW,2013-03-06 11:20:00,
2013-03-06 05:25:00,23.8,16.4,30.43,NNW,338,3.1,4.7,73,0.00,,,0.00,WUHU216HW,2013-03-06 11:25:00,
2013-03-06 05:30:00,23.6,16.2,30.43,NW,315,2.5,4.5,73,0.00,,,0.00,WUHU216HW,2013-03-06 11:30:00,
2013-03-06 05:35:00,23.4,16.0,30.43,NW,315,1.8,3.4,73,0.00,,,0.00,WUHU216HW,2013-03-06 11:35:00,
2013-03-06 05:40:00,23.0,15.7,30.44,NW,315,4.0,4.0,73,0.00,,,0.00,WUHU216HW,2013-03-06 11:40:00,
2013-03-06 05:45:00,22.7,15.7,30.44,NW,315,3.1,4.0,74,0.00,,,0.00,WUHU216HW,2013-03-06 11:45:00,
2013-03-06 05:50:00,22.7,15.9,30.44,NW,315,2.9,4.3,75,0.00,,,0.00,WUHU216HW,2013-03-06 11:50:00,
2013-03-06 05:55:00,22.5,15.8,30.44,WNW,293,2.5,4.3,75,0.00,,,0.00,WUHU216HW,2013-03-06 11:55:00,
2013-03-06 06:00:00,22.5,15.8,30.44,NW,315,3.4,3.8,75,0.00,,,0.00,WUHU216HW,2013-03-06 12:00:00,
2013-03-06 06:05:00,22.3,15.6,30.44,NW,315,3.4,3.8,75,0.00,,,0.00,WUHU216HW,2013-03-06 12:05:00,
2013-03-06 06:10:00,22.1,15.4,30.44,NW,315,3.6,4.0,75,0.00,,,0.00,WUHU216HW,2013-03-06 12:10:00,
2013-03-06 06:15:00,22.0,15.2,30.44,WNW,293,3.4,4.0,75,0.00,,,0.00,WUHU216HW,2013-03-06 12:15:00,
2013-03-06 06:20:00,22.0,15.2,30.44,NW,315,2.9,4.0,75,0.00,,,0.00,WUHU216HW,2013-03-06 12:20:00,
2013-03-06 06:25:00,22.0,15.2,30.44,NNW,338,2.2,4.0,75,0.00,,,0.00,WUHU216HW,2013-03-06 12:25:00,
2013-03-06 06:30:00,21.8,15.0,30.44,NNW,338,2.0,3.4,75,0.00,,,0.00,WUHU216HW,2013-03-06 12:30:00,
2013-03-06 06:35:00,21.8,15.0,30.45,WNW,293,2.5,3.4,75,0.00,,,0.00,WUHU216HW,2013-03-06 12:35:00,
2013-03-06 06:40:00,21.8,15.0,30.44,NW,315,2.5,3.4,75,0.00,,,0.00,WUHU216HW,2013-03-06 12:40:00,
2013-03-06 06:45:00,21.6,14.9,30.44,NW,315,2.7,3.4,75,0.00,,,0.00,WUHU216HW,2013-03-06 12:45:00,
2013-03-06 06:50:00,21.6,14.9,30.44,NNW,338,2.0,3.4,75,0.00,,,0.00,WUHU216HW,2013-03-06 12:50:00,
2013-03-06 06:55:00,21.4,14.7,30.44,NW,315,1.8,2.9,75,0.00,,,0.00,WUHU216HW,2013-03-06 12:55:00,
2013-03-06 07:00:00,21.6,14.9,30.45,NNW,338,1.3,3.1,75,0.00,,,0.00,WUHU216HW,2013-03-06 13:00:00,
2013-03-06 07:05:00,21.8,15.0,30.45,North,0,1.6,3.1,75,0.00,,,0.00,WUHU216HW,2013-03-06 13:05:00,
2013-03-06 07:10:00,22.0,15.2,30.44,NNW,338,1.8,2.2,75,0.00,,,0.00,WUHU216HW,2013-03-06 13:10:00,
2013-03-06 07:15:00,22.1,15.7,30.44,NW,315,4.7,4.7,76,0.00,,,0.00,WUHU216HW,2013-03-06 13:15:00,
2013-03-06 07:20:00,22.0,15.2,30.45,NNW,338,1.8,4.7,75,0.00,,,0.00,WUHU216HW,2013-03-06 13:20:00,
2013-03-06 07:25:00,22.3,15.8,30.45,NNW,338,2.0,3.4,76,0.00,,,0.00,WUHU216HW,2013-03-06 13:25:00,
2013-03-06 07:30:00,22.7,16.2,30.45,North,0,1.3,2.0,76,0.00,,,0.00,WUHU216HW,2013-03-06 13:30:00,
2013-03-06 07:35:00,23.2,16.7,30.45,NW,315,0.4,1.8,76,0.00,,,0.00,WUHU216HW,2013-03-06 13:35:00,
2013-03-06 07:40:00,23.4,16.7,30.45,NE,45,1.1,3.8,75,0.00,,,0.00,WUHU216HW,2013-03-06 13:40:00,
2013-03-06 07:45:00,23.8,17.0,30.45,North,0,1.8,3.8,75,0.00,,,0.00,WUHU216HW,2013-03-06 13:45:00,
2013-03-06 07:50:00,24.7,17.8,30.45,NW,315,1.3,2.0,75,0.00,,,0.00,WUHU216HW,2013-03-06 13:50:00,
2013-03-06 07:55:00,26.3,19.4,30.45,NNW,338,1.3,2.0,75,0.00,,,0.00,WUHU216HW,2013-03-06 13:55:00,
2013-03-06 08:00:00,26.8,19.0,30.45,NW,315,2.2,2.2,72,0.00,,,0.00,WUHU216HW,2013-03-06 14:00:00,
2013-03-06 08:05:00,26.3,18.5,30.46,NNW,338,0.7,4.3,72,0.00,,,0.00,WUHU216HW,2013-03-06 14:05:00,
2013-03-06 08:10:00,26.1,18.3,30.46,East,90,1.1,4.3,72,0.00,,,0.00,WUHU216HW,2013-03-06 14:10:00,
2013-03-06 08:15:00,26.3,18.5,30.46,NNW,338,3.8,3.8,72,0.00,,,0.00,WUHU216HW,2013-03-06 14:15:00,
2013-03-06 08:20:00,26.6,18.8,30.46,NNW,338,4.5,4.9,72,0.00,,,0.00,WUHU216HW,2013-03-06 14:20:00,
2013-03-06 08:25:00,26.8,19.0,30.46,NNW,338,1.3,4.9,72,0.00,,,0.00,WUHU216HW,2013-03-06 14:25:00,
2013-03-06 08:30:00,27.2,19.4,30.46,NW,315,4.3,4.3,72,0.00,,,0.00,WUHU216HW,2013-03-06 14:30:00,
2013-03-06 08:35:00,27.7,19.9,30.46,North,0,0.7,4.3,72,0.00,,,0.00,WUHU216HW,2013-03-06 14:35:00,
2013-03-06 08:40:00,28.4,20.3,30.46,NW,315,2.0,3.6,71,0.00,,,0.00,WUHU216HW,2013-03-06 14:40:00,
2013-03-06 08:45:00,28.8,20.6,30.46,ENE,68,4.3,4.3,71,0.00,,,0.00,WUHU216HW,2013-03-06 14:45:00,
2013-03-06 08:50:00,29.2,20.6,30.46,NNW,338,2.5,4.9,70,0.00,,,0.00,WUHU216HW,2013-03-06 14:50:00,
2013-03-06 08:55:00,29.3,20.4,30.46,North,0,3.4,4.9,69,0.00,,,0.00,WUHU216HW,2013-03-06 14:55:00,
2013-03-06 09:00:00,29.5,20.3,30.46,NE,45,5.4,6.3,68,0.00,,,0.00,WUHU216HW,2013-03-06 15:00:00,
2013-03-06 09:05:00,29.7,20.4,30.46,North,0,3.8,6.3,68,0.00,,,0.00,WUHU216HW,2013-03-06 15:05:00,
2013-03-06 09:10:00,30.2,20.5,30.46,NE,45,7.6,8.5,67,0.00,,,0.00,WUHU216HW,2013-03-06 15:10:00,
2013-03-06 09:15:00,30.6,20.5,30.45,NNE,23,5.4,10.7,66,0.00,,,0.00,WUHU216HW,2013-03-06 15:15:00,
2013-03-06 09:20:00,31.5,21.4,30.45,NNE,23,7.6,12.5,66,0.00,,,0.00,WUHU216HW,2013-03-06 15:20:00,
2013-03-06 09:25:00,31.9,21.1,30.45,NNE,23,5.8,12.5,64,0.00,,,0.00,WUHU216HW,2013-03-06 15:25:00,
2013-03-06 09:30:00,31.9,21.1,30.45,North,0,6.3,12.5,64,0.00,,,0.00,WUHU216HW,2013-03-06 15:30:00,
2013-03-06 09:35:00,32.2,21.1,30.45,NNE,23,6.9,11.2,63,0.00,,,0.00,WUHU216HW,2013-03-06 15:35:00,
2013-03-06 09:40:00,34.4,23.4,30.45,NE,45,5.1,11.2,64,0.00,,,0.00,WUHU216HW,2013-03-06 15:40:00,
2013-03-06 09:45:00,37.6,24.1,30.45,NE,45,8.1,8.1,58,0.00,,,0.00,WUHU216HW,2013-03-06 15:45:00,
2013-03-06 09:50:00,36.7,22.5,30.45,NNW,338,6.9,9.2,56,0.00,,,0.00,WUHU216HW,2013-03-06 15:50:00,
2013-03-06 09:55:00,36.4,22.1,30.45,ENE,68,5.4,9.2,56,0.00,,,0.00,WUHU216HW,2013-03-06 15:55:00,
2013-03-06 10:00:00,35.8,22.1,30.45,NNE,23,4.7,11.0,57,0.00,,,0.00,WUHU216HW,2013-03-06 16:00:00,
2013-03-06 10:06:00,35.8,21.7,30.46,NE,45,7.2,11.0,56,0.00,,,0.00,WUHU216HW,2013-03-06 16:06:00,
2013-03-06 10:11:00,36.0,22.7,30.45,NNE,23,2.7,7.2,58,0.00,,,0.00,WUHU216HW,2013-03-06 16:11:00,
2013-03-06 10:16:00,38.2,23.8,30.46,North,0,1.8,10.5,56,0.00,,,0.00,WUHU216HW,2013-03-06 16:16:00,
2013-03-06 10:21:00,39.2,23.4,30.46,NNE,23,4.9,10.5,53,0.00,,,0.00,WUHU216HW,2013-03-06 16:21:00,
2013-03-06 10:26:00,38.9,23.1,30.46,NW,315,3.4,4.9,53,0.00,,,0.00,WUHU216HW,2013-03-06 16:26:00,
2013-03-06 10:31:00,38.5,23.2,30.46,NNW,338,5.4,5.4,54,0.00,,,0.00,WUHU216HW,2013-03-06 16:31:00,
2013-03-06 10:36:00,38.2,22.9,30.46,NNE,23,6.0,6.0,54,0.00,,,0.00,WUHU216HW,2013-03-06 16:36:00,
2013-03-06 10:41:00,38.5,22.8,30.46,ENE,68,4.0,6.0,53,0.00,,,0.00,WUHU216HW,2013-03-06 16:41:00,
2013-03-06 10:46:00,38.7,22.5,30.46,NNE,23,5.4,7.4,52,0.00,,,0.00,WUHU216HW,2013-03-06 16:46:00,
2013-03-06 10:51:00,39.1,22.9,30.45,NNE,23,6.9,7.4,52,0.00,,,0.00,WUHU216HW,2013-03-06 16:51:00,
2013-03-06 10:56:00,41.8,24.9,30.45,NE,45,2.5,6.9,51,0.00,,,0.00,WUHU216HW,2013-03-06 16:56:00,
2013-03-06 11:01:00,44.3,27.7,30.45,NNE,23,6.3,6.3,52,0.00,,,0.00,WUHU216HW,2013-03-06 17:01:00,
2013-03-06 11:06:00,45.0,25.4,30.45,North,0,4.5,10.1,46,0.00,,,0.00,WUHU216HW,2013-03-06 17:06:00,
2013-03-06 11:11:00,45.5,25.3,30.45,NNE,23,4.0,10.1,45,0.00,,,0.00,WUHU216HW,2013-03-06 17:11:00,
2013-03-06 11:16:00,45.5,24.8,30.45,North,0,5.1,9.8,44,0.00,,,0.00,WUHU216HW,2013-03-06 17:16:00,
2013-03-06 11:21:00,46.6,25.8,30.45,ENE,68,2.5,6.9,44,0.00,,,0.00,WUHU216HW,2013-03-06 17:21:00,
2013-03-06 11:26:00,47.7,26.2,30.45,NE,45,6.0,6.7,43,0.00,,,0.00,WUHU216HW,2013-03-06 17:26:00,
2013-03-06 11:31:00,47.7,26.2,30.45,NE,45,4.5,6.0,43,0.00,,,0.00,WUHU216HW,2013-03-06 17:31:00,
2013-03-06 11:36:00,48.2,26.1,30.45,East,90,4.3,6.0,42,0.00,,,0.00,WUHU216HW,2013-03-06 17:36:00,
2013-03-06 11:41:00,47.3,24.2,30.45,East,90,2.9,4.7,40,0.00,,,0.00,WUHU216HW,2013-03-06 17:41:00,
2013-03-06 11:46:00,47.3,25.3,30.44,NE,45,3.4,4.7,42,0.00,,,0.00,WUHU216HW,2013-03-06 17:46:00,
2013-03-06 11:51:00,48.1,24.8,30.44,NNE,23,3.6,4.0,40,0.00,,,0.00,WUHU216HW,2013-03-06 17:51:00,
2013-03-06 11:56:00,48.6,25.4,30.44,ENE,68,4.0,4.0,40,0.00,,,0.00,WUHU216HW,2013-03-06 17:56:00,
2013-03-06 12:01:00,50.0,27.2,30.44,ENE,68,3.6,4.3,41,0.00,,,0.00,WUHU216HW,2013-03-06 18:01:00,
2013-03-06 12:06:00,49.3,25.3,30.44,West,270,0.4,4.3,39,0.00,,,0.00,WUHU216HW,2013-03-06 18:06:00,
2013-03-06 12:11:00,49.7,24.9,30.44,NNE,23,3.4,4.3,38,0.00,,,0.00,WUHU216HW,2013-03-06 18:11:00,
2013-03-06 12:16:00,49.3,25.3,30.44,South,180,0.9,4.0,39,0.00,,,0.00,WUHU216HW,2013-03-06 18:16:00,
2013-03-06 12:21:00,49.1,25.8,30.43,North,0,3.4,4.0,40,0.00,,,0.00,WUHU216HW,2013-03-06 18:21:00,
2013-03-06 12:29:00,50.9,26.7,30.44,NE,45,5.1,5.1,39,0.00,,,0.00,WUHU216HW,2013-03-06 18:29:00,
2013-03-06 12:34:00,52.0,28.5,30.44,North,0,1.6,5.1,40,0.00,,,0.00,WUHU216HW,2013-03-06 18:34:00,
2013-03-06 12:39:00,52.2,27.9,30.44,NNE,23,3.4,5.1,39,0.00,,,0.00,WUHU216HW,2013-03-06 18:39:00,
2013-03-06 12:44:00,52.9,27.9,30.44,West,270,0.2,4.3,38,0.00,,,0.00,WUHU216HW,2013-03-06 18:44:00,
2013-03-06 12:49:00,52.6,26.8,30.44,NNE,23,0.2,3.4,37,0.00,,,0.00,WUHU216HW,2013-03-06 18:49:00,
2013-03-06 12:54:00,52.6,26.8,30.44,NNW,338,1.1,1.8,37,0.00,,,0.00,WUHU216HW,2013-03-06 18:54:00,
2013-03-06 12:59:00,52.6,26.2,30.43,West,270,2.5,2.5,36,0.00,,,0.00,WUHU216HW,2013-03-06 18:59:00,
2013-03-06 13:04:00,50.9,23.3,30.43,North,0,3.4,4.7,34,0.00,,,0.00,WUHU216HW,2013-03-06 19:04:00,
2013-03-06 13:09:00,50.4,25.6,30.43,North,0,3.4,4.7,38,0.00,,,0.00,WUHU216HW,2013-03-06 19:09:00,
2013-03-06 13:14:00,50.4,25.6,30.43,North,0,3.4,3.4,38,0.00,,,0.00,WUHU216HW,2013-03-06 19:14:00,
2013-03-06 13:36:00,48.8,23.5,30.41,WNW,293,2.0,2.0,37,0.00,,,0.00,WUHU216HW,2013-03-06 19:36:00,
2013-03-06 13:41:00,48.8,23.5,30.41,WNW,293,2.0,2.0,37,0.00,,,0.00,WUHU216HW,2013-03-06 19:41:00,
2013-03-06 13:46:00,48.8,23.5,30.41,WNW,293,2.0,2.0,37,0.00,,,0.00,WUHU216HW,2013-03-06 19:46:00,
2013-03-06 13:53:00,49.3,24.7,30.41,NW,315,1.6,1.6,38,0.00,,,0.00,WUHU216HW,2013-03-06 19:53:00,
2013-03-06 13:58:00,49.3,24.7,30.41,NW,315,1.6,1.6,38,0.00,,,0.00,WUHU216HW,2013-03-06 19:58:00,
2013-03-06 14:03:00,49.3,24.7,30.41,NW,315,1.6,1.6,38,0.00,,,0.00,WUHU216HW,2013-03-06 20:03:00,
2013-03-06 14:23:00,48.1,23.5,30.40,South,180,0.7,0.7,38,0.00,,,0.00,WUHU216HW,2013-03-06 20:23:00,
2013-03-06 14:28:00,48.2,23.7,30.40,SW,225,0.4,0.7,38,0.00,,,0.00,WUHU216HW,2013-03-06 20:28:00,
2013-03-06 14:33:00,48.2,23.7,30.40,SW,225,0.4,0.4,38,0.00,,,0.00,WUHU216HW,2013-03-06 20:33:00,
2013-03-06 14:53:00,51.5,25.9,30.40,WNW,293,1.1,1.1,37,0.00,,,0.00,WUHU216HW,2013-03-06 20:53:00,
2013-03-06 14:58:00,51.8,25.6,30.40,ESE,113,2.5,3.6,36,0.00,,,0.00,WUHU216HW,2013-03-06 20:58:00,
2013-03-06 15:03:00,50.2,22.7,30.40,SSE,158,4.5,5.4,34,0.00,,,0.00,WUHU216HW,2013-03-06 21:03:00,
2013-03-06 15:08:00,48.6,24.0,30.39,SW,225,2.5,5.4,38,0.00,,,0.00,WUHU216HW,2013-03-06 21:08:00,
2013-03-06 15:13:00,47.5,23.0,30.39,SSW,203,2.5,4.5,38,0.00,,,0.00,WUHU216HW,2013-03-06 21:13:00,
2013-03-06 15:18:00,46.6,22.9,30.39,SW,225,1.8,3.4,39,0.00,,,0.00,WUHU216HW,2013-03-06 21:18:00,
2013-03-06 15:23:00,46.8,22.4,30.39,SW,225,4.0,4.0,38,0.00,,,0.00,WUHU216HW,2013-03-06 21:23:00,
2013-03-06 15:28:00,47.2,22.7,30.39,WSW,248,2.5,4.3,38,0.00,,,0.00,WUHU216HW,2013-03-06 21:28:00,
2013-03-06 15:33:00,48.6,24.0,30.39,South,180,2.9,4.3,38,0.00,,,0.00,WUHU216HW,2013-03-06 21:33:00,
2013-03-06 15:38:00,49.1,24.5,30.39,ENE,68,2.2,3.4,38,0.00,,,0.00,WUHU216HW,2013-03-06 21:38:00,
2013-03-06 15:43:00,48.8,24.1,30.39,East,90,3.6,4.0,38,0.00,,,0.00,WUHU216HW,2013-03-06 21:43:00,
2013-03-06 15:48:00,48.1,23.5,30.39,SE,135,6.0,6.0,38,0.00,,,0.00,WUHU216HW,2013-03-06 21:48:00,
2013-03-06 15:53:00,48.1,24.2,30.38,North,0,2.5,6.0,39,0.00,,,0.00,WUHU216HW,2013-03-06 21:53:00,
2013-03-06 15:58:00,50.0,25.9,30.38,ESE,113,3.4,6.0,39,0.00,,,0.00,WUHU216HW,2013-03-06 21:58:00,
2013-03-06 16:03:00,49.5,24.9,30.37,SSE,158,2.7,5.6,38,0.00,,,0.00,WUHU216HW,2013-03-06 22:03:00,
2013-03-06 16:08:00,49.7,24.9,30.37,SE,135,3.8,5.6,38,0.00,,,0.00,WUHU216HW,2013-03-06 22:08:00,
2013-03-06 16:13:00,48.2,23.7,30.37,East,90,5.6,6.7,38,0.00,,,0.00,WUHU216HW,2013-03-06 22:13:00,
2013-03-06 16:18:00,46.4,22.1,30.37,SSE,158,0.7,6.7,38,0.00,,,0.00,WUHU216HW,2013-03-06 22:18:00,
2013-03-06 16:23:00,46.4,23.4,30.37,East,90,1.8,6.3,40,0.00,,,0.00,WUHU216HW,2013-03-06 22:23:00,
2013-03-06 16:28:00,46.6,23.6,30.37,ENE,68,1.8,6.3,40,0.00,,,0.00,WUHU216HW,2013-03-06 22:28:00,
2013-03-06 16:33:00,47.7,23.9,30.37,ENE,68,3.4,5.4,39,0.00,,,0.00,WUHU216HW,2013-03-06 22:33:00,
2013-03-06 16:38:00,45.9,21.6,30.37,SSE,158,4.7,5.8,38,0.00,,,0.00,WUHU216HW,2013-03-06 22:38:00,
2013-03-06 16:43:00,44.8,22.5,30.37,SSE,158,5.1,5.8,41,0.00,,,0.00,WUHU216HW,2013-03-06 22:43:00,
2013-03-06 16:48:00,44.8,22.5,30.37,East,90,3.6,7.4,41,0.00,,,0.00,WUHU216HW,2013-03-06 22:48:00,
2013-03-06 16:53:00,45.4,23.0,30.37,SE,135,3.1,7.4,41,0.00,,,0.00,WUHU216HW,2013-03-06 22:53:00,
2013-03-06 16:58:00,45.5,23.1,30.37,East,90,2.0,4.7,41,0.00,,,0.00,WUHU216HW,2013-03-06 22:58:00,
2013-03-06 17:03:00,45.9,23.0,30.36,East,90,4.0,5.8,40,0.00,,,0.00,WUHU216HW,2013-03-06 23:03:00,
2013-03-06 17:08:00,45.4,22.4,30.36,East,90,2.5,5.8,40,0.00,,,0.00,WUHU216HW,2013-03-06 23:08:00,
2013-03-06 17:13:00,45.2,22.2,30.36,ENE,68,2.5,4.9,40,0.00,,,0.00,WUHU216HW,2013-03-06 23:13:00,
2013-03-06 17:18:00,44.8,23.1,30.36,NNE,23,4.0,4.9,42,0.00,,,0.00,WUHU216HW,2013-03-06 23:18:00,
2013-03-06 17:23:00,44.6,22.9,30.36,NE,45,4.9,4.9,42,0.00,,,0.00,WUHU216HW,2013-03-06 23:23:00,
2013-03-06 17:28:00,43.7,22.6,30.36,SE,135,4.7,4.9,43,0.00,,,0.00,WUHU216HW,2013-03-06 23:28:00,
2013-03-06 17:33:00,43.0,22.0,30.36,SE,135,4.5,4.9,43,0.00,,,0.00,WUHU216HW,2013-03-06 23:33:00,
2013-03-06 17:38:00,41.8,20.8,30.36,ESE,113,2.7,4.7,43,0.00,,,0.00,WUHU216HW,2013-03-06 23:38:00,
2013-03-06 17:43:00,40.3,20.5,30.36,East,90,3.1,4.9,45,0.00,,,0.00,WUHU216HW,2013-03-06 23:43:00,
2013-03-06 17:48:00,38.9,19.7,30.36,ESE,113,3.4,4.9,46,0.00,,,0.00,WUHU216HW,2013-03-06 23:48:00,
2013-03-06 17:53:00,38.2,20.2,30.35,East,90,4.0,4.5,48,0.00,,,0.00,WUHU216HW,2013-03-06 23:53:00,
2013-03-06 17:58:00,37.8,19.8,30.35,ESE,113,1.3,4.5,48,0.00,,,0.00,WUHU216HW,2013-03-06 23:58:00,
2013-03-06 18:03:00,37.4,20.0,30.35,East,90,2.9,4.0,49,0.00,,,0.00,WUHU216HW,2013-03-07 00:03:00,
2013-03-06 18:08:00,36.9,20.4,30.35,East,90,3.1,4.7,51,0.00,,,0.00,WUHU216HW,2013-03-07 00:08:00,
2013-03-06 18:13:00,36.7,19.9,30.35,ESE,113,1.8,4.7,50,0.00,,,0.00,WUHU216HW,2013-03-07 00:13:00,
2013-03-06 18:18:00,36.4,20.0,30.35,ESE,113,1.3,3.4,51,0.00,,,0.00,WUHU216HW,2013-03-07 00:18:00,
2013-03-06 18:23:00,36.4,20.0,30.35,ESE,113,0.9,3.1,51,0.00,,,0.00,WUHU216HW,2013-03-07 00:23:00,
2013-03-06 18:28:00,36.4,20.4,30.35,SE,135,0.9,1.8,52,0.00,,,0.00,WUHU216HW,2013-03-07 00:28:00,
2013-03-06 18:33:00,36.2,20.3,30.35,SE,135,0.9,1.3,52,0.00,,,0.00,WUHU216HW,2013-03-07 00:33:00,
2013-03-06 18:38:00,36.0,21.0,30.34,ESE,113,0.7,1.1,54,0.00,,,0.00,WUHU216HW,2013-03-07 00:38:00,
2013-03-06 18:43:00,35.8,20.3,30.34,ESE,113,1.1,1.1,53,0.00,,,0.00,WUHU216HW,2013-03-07 00:43:00,
2013-03-06 18:48:00,35.6,20.6,30.34,East,90,0.9,1.1,54,0.00,,,0.00,WUHU216HW,2013-03-07 00:48:00,
2013-03-06 18:53:00,35.5,20.9,30.34,East,90,1.1,1.1,55,0.00,,,0.00,WUHU216HW,2013-03-07 00:53:00,
2013-03-06 18:58:00,35.3,20.7,30.34,ESE,113,0.7,1.3,55,0.00,,,0.00,WUHU216HW,2013-03-07 00:58:00,
2013-03-06 19:03:00,35.1,20.5,30.34,SE,135,0.9,1.3,55,0.00,,,0.00,WUHU216HW,2013-03-07 01:03:00,
2013-03-06 19:08:00,34.9,20.3,30.34,East,90,1.1,1.8,55,0.00,,,0.00,WUHU216HW,2013-03-07 01:08:00,
2013-03-06 19:13:00,34.9,20.3,30.34,East,90,1.1,1.8,55,0.00,,,0.00,WUHU216HW,2013-03-07 01:13:00,
2013-03-06 19:18:00,34.7,20.2,30.34,East,90,1.1,1.8,55,0.00,,,0.00,WUHU216HW,2013-03-07 01:18:00,
2013-03-06 19:23:00,34.6,20.0,30.34,East,90,1.3,2.5,55,0.00,,,0.00,WUHU216HW,2013-03-07 01:23:00,
2013-03-06 19:28:00,34.2,20.1,30.34,East,90,0.7,2.5,56,0.00,,,0.00,WUHU216HW,2013-03-07 01:28:00,
2013-03-06 19:33:00,34.0,20.4,30.34,ESE,113,0.4,2.2,57,0.00,,,0.00,WUHU216HW,2013-03-07 01:33:00,
2013-03-06 19:38:00,34.0,20.4,30.34,SE,135,0.7,1.3,57,0.00,,,0.00,WUHU216HW,2013-03-07 01:38:00,
2013-03-06 19:43:00,33.8,19.7,30.34,East,90,2.2,2.7,56,0.00,,,0.00,WUHU216HW,2013-03-07 01:43:00,
2013-03-06 19:48:00,33.5,19.8,30.34,ESE,113,0.7,2.7,57,0.00,,,0.00,WUHU216HW,2013-03-07 01:48:00,
2013-03-06 19:53:00,33.5,19.8,30.34,ESE,113,1.1,2.2,57,0.00,,,0.00,WUHU216HW,2013-03-07 01:53:00,
2013-03-06 19:58:00,33.5,20.3,30.34,SE,135,1.6,1.6,58,0.00,,,0.00,WUHU216HW,2013-03-07 01:58:00,
2013-03-06 20:03:00,33.1,19.9,30.34,ESE,113,1.3,1.6,58,0.00,,,0.00,WUHU216HW,2013-03-07 02:03:00,
2013-03-06 20:08:00,32.6,19.0,30.34,ESE,113,1.6,1.8,57,0.00,,,0.00,WUHU216HW,2013-03-07 02:08:00,
2013-03-06 20:13:00,32.4,19.7,30.34,ESE,113,1.3,2.2,59,0.00,,,0.00,WUHU216HW,2013-03-07 02:13:00,
2013-03-06 20:18:00,32.4,19.3,30.34,ESE,113,1.6,2.2,58,0.00,,,0.00,WUHU216HW,2013-03-07 02:18:00,
2013-03-06 20:23:00,32.2,19.5,30.33,East,90,1.1,2.2,59,0.00,,,0.00,WUHU216HW,2013-03-07 02:23:00,
2013-03-06 20:28:00,32.0,19.4,30.33,ESE,113,0.7,2.2,59,0.00,,,0.00,WUHU216HW,2013-03-07 02:28:00,
2013-03-06 20:33:00,32.0,19.4,30.33,ESE,113,0.9,2.2,59,0.00,,,0.00,WUHU216HW,2013-03-07 02:33:00,
2013-03-06 20:38:00,31.9,19.6,30.34,ESE,113,0.9,2.0,60,0.00,,,0.00,WUHU216HW,2013-03-07 02:38:00,
2013-03-06 20:43:00,31.3,19.4,30.34,ESE,113,1.6,2.2,61,0.00,,,0.00,WUHU216HW,2013-03-07 02:43:00,
2013-03-06 20:48:00,31.1,19.3,30.34,SE,135,1.8,2.7,61,0.00,,,0.00,WUHU216HW,2013-03-07 02:48:00,
2013-03-06 20:53:00,31.0,19.4,30.34,ENE,68,1.8,3.1,62,0.00,,,0.00,WUHU216HW,2013-03-07 02:53:00,
2013-03-06 20:58:00,30.8,19.3,30.34,ESE,113,2.5,3.1,62,0.00,,,0.00,WUHU216HW,2013-03-07 02:58:00,
2013-03-06 21:03:00,30.8,19.3,30.33,SE,135,2.0,2.5,62,0.00,,,0.00,WUHU216HW,2013-03-07 03:03:00,
2013-03-06 21:08:00,30.8,19.6,30.33,SE,135,1.8,4.0,63,0.00,,,0.00,WUHU216HW,2013-03-07 03:08:00,
2013-03-06 21:13:00,30.6,19.4,30.33,SE,135,1.8,4.0,63,0.00,,,0.00,WUHU216HW,2013-03-07 03:13:00,
2013-03-06 21:18:00,30.6,19.4,30.33,SE,135,2.5,3.8,63,0.00,,,0.00,WUHU216HW,2013-03-07 03:18:00,
2013-03-06 21:23:00,30.6,19.4,30.33,ESE,113,2.5,4.3,63,0.00,,,0.00,WUHU216HW,2013-03-07 03:23:00,
2013-03-06 21:28:00,30.2,19.4,30.33,ESE,113,1.8,4.3,64,0.00,,,0.00,WUHU216HW,2013-03-07 03:28:00,
2013-03-06 21:33:00,30.1,19.6,30.33,SE,135,2.5,4.3,65,0.00,,,0.00,WUHU216HW,2013-03-07 03:33:00,
2013-03-06 21:38:00,29.9,19.4,30.33,ESE,113,2.2,4.3,65,0.00,,,0.00,WUHU216HW,2013-03-07 03:38:00,
2013-03-06 21:43:00,29.9,19.4,30.33,East,90,2.5,4.5,65,0.00,,,0.00,WUHU216HW,2013-03-07 03:43:00,
2013-03-06 21:48:00,29.9,19.4,30.33,ESE,113,3.4,4.5,65,0.00,,,0.00,WUHU216HW,2013-03-07 03:48:00,
2013-03-06 21:53:00,29.9,19.8,30.33,ESE,113,2.2,4.0,66,0.00,,,0.00,WUHU216HW,2013-03-07 03:53:00,
2013-03-06 21:58:00,29.7,19.7,30.32,SE,135,4.0,4.5,66,0.00,,,0.00,WUHU216HW,2013-03-07 03:58:00,
2013-03-06 22:03:00,29.5,19.5,30.33,ESE,113,2.9,4.7,66,0.00,,,0.00,WUHU216HW,2013-03-07 04:03:00,
2013-03-06 22:08:00,29.2,19.2,30.33,SE,135,2.7,4.7,66,0.00,,,0.00,WUHU216HW,2013-03-07 04:08:00,
2013-03-06 22:13:00,29.2,19.2,30.33,ESE,113,2.0,4.0,66,0.00,,,0.00,WUHU216HW,2013-03-07 04:13:00,
2013-03-06 22:18:00,29.2,19.2,30.33,East,90,2.5,4.0,66,0.00,,,0.00,WUHU216HW,2013-03-07 04:18:00,
2013-03-06 22:23:00,29.2,19.2,30.33,ESE,113,1.6,3.1,66,0.00,,,0.00,WUHU216HW,2013-03-07 04:23:00,
2013-03-06 22:28:00,29.2,19.2,30.33,ESE,113,2.0,2.5,66,0.00,,,0.00,WUHU216HW,2013-03-07 04:28:00,
2013-03-06 22:33:00,29.2,19.2,30.33,ESE,113,0.9,2.5,66,0.00,,,0.00,WUHU216HW,2013-03-07 04:33:00,
2013-03-06 22:38:00,29.3,19.4,30.33,SE,135,2.0,2.5,66,0.00,,,0.00,WUHU216HW,2013-03-07 04:38:00,
2013-03-06 22:43:00,29.2,19.2,30.33,SE,135,2.0,2.5,66,0.00,,,0.00,WUHU216HW,2013-03-07 04:43:00,
2013-03-06 22:48:00,29.0,19.0,30.34,ESE,113,1.1,2.5,66,0.00,,,0.00,WUHU216HW,2013-03-07 04:48:00,
2013-03-06 22:53:00,29.0,19.0,30.34,ESE,113,1.3,2.0,66,0.00,,,0.00,WUHU216HW,2013-03-07 04:53:00,
2013-03-06 22:58:00,28.8,18.9,30.34,ESE,113,1.8,2.0,66,0.00,,,0.00,WUHU216HW,2013-03-07 04:58:00,
2013-03-06 23:00:00,28.8,18.9,30.34,ESE,113,1.6,2.0,66,0.00,,,0.00,WUHU216HW,2013-03-07 05:00:00,
2013-03-06 23:01:00,28.6,18.7,30.34,ESE,113,0.4,2.0,66,0.00,,,0.00,WUHU216HW,2013-03-07 05:01:00,
2013-03-06 23:06:00,28.6,19.1,30.34,ESE,113,1.3,1.8,67,0.00,,,0.00,WUHU216HW,2013-03-07 05:06:00,
2013-03-06 23:11:00,28.4,18.9,30.34,ESE,113,0.9,1.6,67,0.00,,,0.00,WUHU216HW,2013-03-07 05:11:00,
2013-03-06 23:16:00,28.4,19.3,30.34,East,90,0.9,1.8,68,0.00,,,0.00,WUHU216HW,2013-03-07 05:16:00,
2013-03-06 23:21:00,28.1,18.9,30.34,ESE,113,1.1,1.8,68,0.00,,,0.00,WUHU216HW,2013-03-07 05:21:00,
2013-03-06 23:26:00,28.1,18.9,30.34,ESE,113,0.4,1.6,68,0.00,,,0.00,WUHU216HW,2013-03-07 05:26:00,
2013-03-06 23:31:00,27.9,18.7,30.33,ESE,113,1.1,1.6,68,0.00,,,0.00,WUHU216HW,2013-03-07 05:31:00,
2013-03-06 23:36:00,27.4,18.5,30.33,ESE,113,1.1,1.6,69,0.00,,,0.00,WUHU216HW,2013-03-07 05:36:00,
2013-03-06 23:41:00,27.0,18.5,30.33,East,90,1.8,2.2,70,0.00,,,0.00,WUHU216HW,2013-03-07 05:41:00,
2013-03-06 23:46:00,27.0,18.5,30.33,East,90,2.5,2.5,70,0.00,,,0.00,WUHU216HW,2013-03-07 05:46:00,
2013-03-06 23:51:00,26.6,18.2,30.33,ESE,113,1.1,2.5,70,0.00,,,0.00,WUHU216HW,2013-03-07 05:51:00,
2013-03-06 23:56:00,26.8,18.4,30.33,SE,135,1.8,2.5,70,0.00,,,0.00,WUHU216HW,2013-03-07 05:56:00,